www.pogodaiklimat.ru
ПОГОДА в Манитовоке
Время
(UTC), дата
14:07 21.11
14:26 21.11
14:43 21.11
14:56 21.11
15:04 21.11
15:56 21.11
16:46 21.11
16:56 21.11
17:10 21.11
17:15 21.11
17:31 21.11
17:56 21.11
18:22 21.11
18:29 21.11
18:56 21.11
19:48 21.11
19:56 21.11
20:12 21.11
20:24 21.11
20:56 21.11
21:06 21.11
21:56 21.11
22:42 21.11
22:56 21.11
23:56 21.11
00:53 21.11
00:56 21.11
01:21 21.11
01:56 21.11
02:35 21.11
02:56 21.11
03:56 21.11
04:56 21.11
05:32 22.11
05:56 22.11
06:56 22.11
07:06 22.11
07:56 22.11
08:17 22.11
08:56 22.11
09:35 22.11
09:56 22.11
10:56 22.11
11:56 22.11
12:07 22.11
12:56 22.11
13:10 22.11
13:56 22.11
Ветер
(напр.,м/с)
Видим. Явления Облачность Т
(С)
Тd
(С)
f
(%)
Тe
(С)
Тes
(С)
Комфортность P
(гПа)
Po
(гПа)
Тmin
(С)
Tmax
(С)
R
(мм)
R24
(мм)
S
(см)
ЮВ 3 3 км слабый дождь, дымка 10/10 120 м +6.0 +6.0 100 +2 +2 979.3
Ю 3 3 км дождь, дымка 10/10 120 м +6.0 +6.0 100 +2 +2 978.9
ЮВ 2 2 км дождь, дымка 10/10 120 м +6.0 +6.0 100 +3 +3 978.9
ЮВ 3 2 км слабый дождь, дымка 10/10 120 м +5.6 +5.6 100 +2 +2 1002.6 978.6
ЮВ 3 2 км слабый дождь, дымка 10/10 120 м +6.0 +6.0 100 +2 +2 978.6
Ю 1 2 км сильный дождь, дымка 10/10 300 м +6.1 +5.6 97 +4 +4 1001.3 977.6
0 2 км слабый дождь, дымка 10/10 90 м +6.0 +6.0 100 +5 +5 976.6
0 2 км дождь, дымка 10/10 90 м +6.1 +6.1 100 +5 +5 1000.1 976.3 +5.0 +6.1
0 2 км слабый дождь, дымка 10/10 90 м +7.0 +6.0 93 +6 +6 976.0
0 2 км слабый дождь, дымка 10/10 150 м +7.0 +6.0 93 +6 +6 976.0
0 2 км слабый дождь, дымка 10/10 210 м +7.0 +7.0 100 +6 +6 976.0
С 1 2 км слабый дождь, дымка 10/10 210 м +6.7 +6.7 100 +5 +5 999.8 976.0
З 4 4 км слабый дождь, дымка 10/10 90 м +9.0 +9.0 100 +5 +5 976.3
СЗ 8
{11}
8 км слабый дождь, дымка 10/10 90 м +9.0 +8.0 93 +4 +4 976.3
СЗ 7
{11}
16 км 10/10 270 м +7.8 +6.7 93 +3 +3 1001.5 977.6
СЗ 6 16 км 10/10 330 м +7.0 +5.0 87 +2 +2 979.3
СЗ 5
{10}
16 км 10/10 390 м +6.7 +4.4 85 +2 +2 1003.4 979.6
СЗ 6 16 км 10/10 450 м +7.0 +4.0 81 +2 +2 979.6
СЗ 6 16 км 10/10 390 м +6.0 +4.0 87 +1 +1 980.6
СЗ 6
{10}
16 км 10/10 390 м +5.6 +3.3 85 0 0 1006.4 982.2
СЗ 9
{10}
16 км 10/10 510 м +6.0 +3.0 81 -0 -0 982.9
СЗ 7
{10}
16 км 10/10 570 м +4.4 +1.1 79 -2 -2 1008.7 984.6
СЗ 8
{11}
16 км 10/10 750 м +4.0 +1.0 81 -2 -2 985.6
СЗ 7
{10}
16 км 10/10 690 м +3.9 +0.6 79 -2 -2 1010.4 986.2 +3.9 +8.9
СЗ 7 16 км 10/10 780 м +3.3 -1.1 73 -3 -3 1011.5 987.2
СЗ 7
{10}
16 км 10/10 810 м +3.0 -2.0 70 -3 -3 988.2
СЗ 6
{12}
16 км 10/10 810 м +2.8 -1.7 72 -3 -3 1012.6 988.2
СЗ 6
{9}
16 км 10/10 930 м +2.0 -2.0 75 -4 -4 988.9
СЗ 6 16 км 10/5 870 м
[средняя]
+2.2 -1.7 75 -4 -4 1013.9 989.9
СЗ 8
{10}
16 км слабый дождь 10/10 810 м +2.0 -3.0 69 -5 -5 990.2
СЗ 7 16 км слабый дождь 10/10 870 м +1.7 -2.8 72 -5 -5 1014.9 990.8
З 7
{10}
16 км 10/10 810 м +1.1 -3.9 69 -6 -6 1015.3 991.2
СЗ 7
{10}
16 км 10/10 870 м +0.6 -3.9 72 -6 -6 1016.1 991.8 +0.6 +3.9
СЗ 7
{10}
16 км 10/10 900 м -1.0 -4.0 80 -9 -9 992.8
СЗ 6
{10}
16 км 10/10 840 м -0.6 -5.0 72 -8 -8 1017.4 993.2
СЗ 5 16 км 8/8 780 м -1.7 -5.6 75 -9 -9 1018.4 994.2
СЗ 6 16 км 5/5 780 м -2.0 -6.0 74 -10 -10 994.2
СЗ 8
{11}
16 км 5/5 960 м -1.7 -6.1 72 -10 -10 1018.9 994.5
СЗ 7
{10}
16 км 10/10 780 м -2.0 -6.0 74 -10 -10 994.8
СЗ 6
{9}
16 км 10/10 840 м -1.7 -6.1 72 -9 -9 1019.7 995.1
СЗ 7
{9}
16 км 10/10 900 м -2.0 -7.0 69 -10 -10 995.5
СЗ 6
{9}
16 км 10/10 900 м -1.7 -6.7 69 -9 -9 1020.3 995.8
СЗ 3 16 км 2/2 840 м -2.8 -7.2 72 -8 -8 1020.6 996.1 -2.8 +0.6 13.2
СЗ 4 16 км 10/10 900 м -2.8 -7.2 72 -9 -9 1021.5 996.8
СЗ 3 16 км 8/8 840 м -3.0 -7.0 74 -9 -9 997.1
СЗ 4 16 км 8/8 900 м -2.2 -6.7 71 -9 -9 1022.7 998.1
СЗ 4 16 км 8/8 840 м -2.0 -7.0 69 -8 -8 998.1
СЗ 4 16 км 10/10 780 м -2.2 -7.2 69 -9 -9 1023.0 998.5
Местоположение метеостанции Manitowoc County Airport: широта 44.1333 долгота -87.6833 высота над уровнем моря 198 м.
В архиве по умолчанию представлена погода в Манитовоке за последние 1-2 суток. Обновление информации о фактической погоде в базе происходит ежечасно! Архивные данные за месяц целиком и за предыдущие месяцы Вы можете получить, выбрав интересующий диапазон дат из раскрывающегося списка и нажав кнопку "Ввод!".
Внимание! Архив погоды МЕТАР в базе сайта по станциям, не включенным в климатический монитор, хранится не более 60 дней. Нет смысла пытаться выбрать более раннюю дату.
*Определитесь, кто Вы:
Внимание! Время в таблицах - всемирное. Для получения местного времени необходимо прибавить поправку, которая равна ч.
Смотрите также архив погоды в соседних городах и на ближайших метеорологических станциях:
Партнеры нашего сайта:      
Пояснения к столбцам:
  • Ветер - указаны скорость ветра в м/с - средняя за 10 мин, порывы в срок и между сроками (в фигурных скобках) и направление, откуда дует ветер: С - северный,
  • СВ - северо-восточный, В - восточный, ЮВ - юго-восточный, Ю - южный, ЮЗ - юго-западный, З - западный, СЗ - северо-западный.
  • Видимость - горизонтальная дальность видимости в метрах или километрах. При видимости от 1 до 10 км при отсутствии осадков обычно наблюдается дымка, при ухудшении видимости до 1 км и менее - туман. В сухую погоду видимость может ухудшаться дымом, пылью или мглою.
  • Явления - указаны атмосферные явления, наблюдавшиеся в срок или в последний час перед сроком; фигурными скобками обозначены явления, наблюдавшиеся между сроками (за 1-3 часа до срока); квадратными скобками обозначены град или гололедные отложения с указанием их диаметра в мм.
  • Облачность - указаны через наклонную черту общая и нижняя облачность в баллах и высота нижней границы облаков в метрах; квадратными скобками обозначены формы облаков: Ci - перистые, Cs - перисто-слоистые, Cc - перисто-кучевые, Ac - высококучевые, As - высокослоистые, Sc - слоисто-кучевые, Ns - слоисто-дождевые, Cu - кучевые, Cb - кучево-дождевые. Подробнее классификацию облаков см. в Атласе облаков (PDF).
  • T - Температура воздуха - температура, измеренная на высоте 2 м над землей.
  • Td - Температура точки росы - температура, при понижении до которой содержащийся в воздухе водяной пар достигнет насыщения.
  • f - Относительная влажность воздуха - влажноcть воздуха, измеренная на высоте 2 м над землей.
  • Te - Эффективная температура - температура, которую ощущает одетый по сезону человек в тени. Характеристика душности погоды. При расчете учитывается влияние влажности воздуха и скорости ветра на теплоощущения человека.
  • Tes - Эффективная температура на солнце - температура, которую ощущает человек, с поправкой на солнечный нагрев. Характеристика знойности погоды. Зависит от высоты солнца над горизонтом, облачности и скорости ветра. Ночью, в пасмурную погоду, а также при ветре 12 м/с и более поправка равна нулю.
  • P - Атмосферное давление - приведенное к уровню моря атмосферное давление.
  • Po - Атмосферное давление - измеренное на уровне метеостанции атмосферное давление.
  • Tmin - Минимальная температура - минимум температуры воздуха на высоте 2 м над землей.
  • Tmax - Максимальная температура - максимум температуры воздуха на высоте 2 м над землей.
  • R - Количество осадков - Количество выпавших осадков за период времени, мм. При наведении курсора мыши на число - период времени, за который выпало указанное количество осадков.
  • R24 - Количество осадков - Количество выпавших осадков за 24 часа, мм.
  • S - Снежный покров - Высота снежного покрова, см. При наведении курсора мыши на число - состояние снежного покрова и степень покрытия местности в баллах.